COSMOS 2308 (GLONASS)

Satellite information

Favourite Embed

Satellite Type and Status

PAYLOADIN ORBIT

Key statistics

Satellite COSMOS 2308 (GLONASS) at a glance.

Uptime

11080

Days in orbit

Revolutions

≈ 2.1

Per day

Orbit

MEO

Medium Earth Orbit

Inclination

64.2

Latest

Satellite identification and parameters

Extended collection of information and parameters for COSMOS 2308 (GLONASS).

Object identification

Identified? True

Debris? False

Object name: COSMOS 2308 (GLONASS)

International designator: 1995-009B

Object number (NORAD): 23512

Object ID (CCSDS): 23512

Country: COMMONWEALTH OF INDEPENDENT STATES (CIS)

Current information (Y/N): Y

RCS size: LARGE

Orbital parameters

Period: 675.739 minutes

Inclination: 64.2343 deg

SMA: 25508.188 km

Apoapsis: 19143.659 km

Periapsis: 19116.447 km

RAAN: 313.3798 deg

Eccentricy: 0.0005334

Argument of periapsis: 315.948 deg

Mean anomaly: 36.5311 deg

Mean motion: 2.13099952 rev/day

Mean motion (dot): -0.00000076 rev/day2

B* drag term: 0.0 1/REarth

Two-line elements (TLE)

Creation date: July 6, 2025, 6:05 p.m.

Reference frame: TEME

Reference center: EARTH

Epoch: July 6, 2025, 8:53 a.m. UTC

TLE line 0: 0 COSMOS 2308 (GLONASS)

TLE line 1: 1 23512U 95009B 25187.37070172 -.00000076 00000-0 00000-0 0 9990

TLE line 2: 2 23512 64.2343 313.3798 0005334 315.9480 36.5311 2.13099952235836

Live tracking on map

Real-time ground track for satellite COSMOS 2308 (GLONASS).

In-orbit conjunctions

There are no conjunctions computed for COSMOS 2308 (GLONASS), at the moment. Check back to stay up to date, as we update our databases every day.

Go to all conjunctions

Associated space launch

GLONASS navigation satellites

COSMOS 2308 (GLONASS) was lifted into orbit during the mission ‘Proton | Uragan 63 to 65’, on board a Proton space rocket.

The launch took place on March 7, 1995, 9:23 a.m. from 200/39 (200L).

For more information about the launch, click the button.

Launch to space Proton | Uragan 63 to 65
Proton | Uragan 63 to 65

Agency: N/A

Status: Launch Successful

Launch date: March 7, 1995, 9:23 a.m. UTC

Rocket: Proton

Launch pad: 200/39 (200L)

Location: Baikonur Cosmodrome, Republic of Kazakhstan

...

Latest news about this satellite

There are no fresh news available about this satellite. Check back as we update our databases every day.


Newsletter sign-up

Weekly statistics, charts and insights to help you stay on top of the space industry.